Year,Month,Day,Hour,Minute,Value (Times are PST for temperature in C)
2018,05,05,00,00,10.40
2018,05,05,00,01,10.40
2018,05,05,00,02,10.40
2018,05,05,00,03,10.40
2018,05,05,00,04,10.40
2018,05,05,00,05,10.30
2018,05,05,00,06,10.30
2018,05,05,00,07,10.30
2018,05,05,00,08,10.30
2018,05,05,00,09,10.30
2018,05,05,00,10,10.30
2018,05,05,00,11,10.30
2018,05,05,00,12,10.30
2018,05,05,00,13,10.30
2018,05,05,00,14,10.30
2018,05,05,00,15,10.30
2018,05,05,00,16,10.30
2018,05,05,00,17,10.30
2018,05,05,00,18,10.20
2018,05,05,00,19,10.20
2018,05,05,00,20,10.20
2018,05,05,00,21,10.20
2018,05,05,00,22,10.20
2018,05,05,00,23,10.10
2018,05,05,00,24,10.10
2018,05,05,00,25,10.10
2018,05,05,00,26,10.10
2018,05,05,00,27,10.00
2018,05,05,00,28,10.00
2018,05,05,00,29,10.00
2018,05,05,00,30,9.90
2018,05,05,00,31,9.90
2018,05,05,00,32,9.90
2018,05,05,00,33,9.90
2018,05,05,00,34,9.90
2018,05,05,00,35,9.90
2018,05,05,00,36,9.90
2018,05,05,00,37,9.90
2018,05,05,00,38,9.90
2018,05,05,00,39,9.90
2018,05,05,00,40,9.80
2018,05,05,00,41,9.80
2018,05,05,00,42,9.80
2018,05,05,00,43,9.80
2018,05,05,00,44,9.70
2018,05,05,00,45,9.70
2018,05,05,00,46,9.70
2018,05,05,00,47,9.70
2018,05,05,00,48,9.70
2018,05,05,00,49,9.70
2018,05,05,00,50,9.60
2018,05,05,00,51,9.60
2018,05,05,00,52,9.60
2018,05,05,00,53,9.60
2018,05,05,00,54,9.60
2018,05,05,00,55,9.60
2018,05,05,00,56,9.60
2018,05,05,00,57,9.50
2018,05,05,00,58,9.50
2018,05,05,00,59,9.50
2018,05,05,01,00,9.50
2018,05,05,01,01,9.50
2018,05,05,01,02,9.40
2018,05,05,01,03,9.40
2018,05,05,01,04,9.40
2018,05,05,01,05,9.40
2018,05,05,01,06,9.40
2018,05,05,01,07,9.40
2018,05,05,01,08,9.40
2018,05,05,01,09,9.30
2018,05,05,01,10,9.30
2018,05,05,01,11,9.30
2018,05,05,01,12,9.30
2018,05,05,01,13,9.30
2018,05,05,01,14,9.20
2018,05,05,01,15,9.20
2018,05,05,01,16,9.20
2018,05,05,01,17,9.20
2018,05,05,01,18,9.20
2018,05,05,01,19,9.20
2018,05,05,01,20,9.20
2018,05,05,01,21,9.10
2018,05,05,01,22,9.10
2018,05,05,01,23,9.10
2018,05,05,01,24,9.10
2018,05,05,01,25,9.10
2018,05,05,01,26,9.10
2018,05,05,01,27,9.10
2018,05,05,01,28,9.10
2018,05,05,01,29,9.10
2018,05,05,01,30,9.10
2018,05,05,01,31,9.00
2018,05,05,01,32,9.00
2018,05,05,01,33,8.90
2018,05,05,01,34,8.90
2018,05,05,01,35,8.90
2018,05,05,01,36,8.90
2018,05,05,01,37,8.80
2018,05,05,01,38,8.80
2018,05,05,01,39,8.80
2018,05,05,01,40,8.80
2018,05,05,01,41,8.80
2018,05,05,01,42,8.80
2018,05,05,01,43,8.80
2018,05,05,01,44,8.70
2018,05,05,01,45,8.70
2018,05,05,01,46,8.70
2018,05,05,01,47,8.70
2018,05,05,01,48,8.70
2018,05,05,01,49,8.70
2018,05,05,01,50,8.70
2018,05,05,01,51,8.70
2018,05,05,01,52,8.70
2018,05,05,01,53,8.70
2018,05,05,01,54,8.70
2018,05,05,01,55,8.70
2018,05,05,01,56,8.70
2018,05,05,01,57,8.60
2018,05,05,01,58,8.70
2018,05,05,01,59,8.70
2018,05,05,02,00,8.70
2018,05,05,02,01,8.70
2018,05,05,02,02,8.70
2018,05,05,02,03,8.70
2018,05,05,02,04,8.80
2018,05,05,02,05,8.80
2018,05,05,02,06,8.80
2018,05,05,02,07,8.80
2018,05,05,02,08,8.80
2018,05,05,02,09,8.90
2018,05,05,02,10,8.90
2018,05,05,02,11,8.90
2018,05,05,02,12,8.90
2018,05,05,02,13,8.90
2018,05,05,02,14,9.00
2018,05,05,02,15,9.00
2018,05,05,02,16,9.10
2018,05,05,02,17,9.10
2018,05,05,02,18,9.20
2018,05,05,02,19,9.20
2018,05,05,02,20,9.30
2018,05,05,02,21,9.30
2018,05,05,02,22,9.40
2018,05,05,02,23,9.40
2018,05,05,02,24,9.50
2018,05,05,02,25,9.50
2018,05,05,02,26,9.50
2018,05,05,02,27,9.50
2018,05,05,02,28,9.50
2018,05,05,02,29,9.50
2018,05,05,02,30,9.50
2018,05,05,02,31,9.40
2018,05,05,02,32,9.40
2018,05,05,02,33,9.40
2018,05,05,02,34,9.30
2018,05,05,02,35,9.30
2018,05,05,02,36,9.30
2018,05,05,02,37,9.30
2018,05,05,02,38,9.30
2018,05,05,02,39,9.20
2018,05,05,02,40,9.20
2018,05,05,02,41,9.20
2018,05,05,02,42,9.20
2018,05,05,02,43,9.20
2018,05,05,02,44,9.10
2018,05,05,02,45,9.10
2018,05,05,02,46,9.10
2018,05,05,02,47,9.10
2018,05,05,02,48,9.10
2018,05,05,02,49,9.00
2018,05,05,02,50,9.00
2018,05,05,02,51,9.00
2018,05,05,02,52,9.00
2018,05,05,02,53,9.00
2018,05,05,02,54,9.00
2018,05,05,02,55,9.00
2018,05,05,02,56,9.00
2018,05,05,02,57,9.00
2018,05,05,02,58,9.00
2018,05,05,02,59,9.00
2018,05,05,03,00,9.00
2018,05,05,03,01,9.00
2018,05,05,03,02,9.00
2018,05,05,03,03,9.00
2018,05,05,03,04,8.90
2018,05,05,03,05,8.90
2018,05,05,03,06,8.90
2018,05,05,03,07,8.90
2018,05,05,03,08,8.90
2018,05,05,03,09,8.90
2018,05,05,03,10,8.90
2018,05,05,03,11,8.90
2018,05,05,03,12,8.80
2018,05,05,03,13,8.80
2018,05,05,03,14,8.80
2018,05,05,03,15,8.80
2018,05,05,03,16,8.80
2018,05,05,03,17,8.80
2018,05,05,03,18,8.70
2018,05,05,03,19,8.70
2018,05,05,03,20,8.70
2018,05,05,03,21,8.70
2018,05,05,03,22,8.70
2018,05,05,03,23,8.70
2018,05,05,03,24,8.60
2018,05,05,03,25,8.60
2018,05,05,03,26,8.60
2018,05,05,03,27,8.50
2018,05,05,03,28,8.50
2018,05,05,03,29,8.40
2018,05,05,03,30,8.40
2018,05,05,03,31,8.40
2018,05,05,03,32,8.40
2018,05,05,03,33,8.40
2018,05,05,03,34,8.40
2018,05,05,03,35,8.40
2018,05,05,03,36,8.30
2018,05,05,03,37,8.30
2018,05,05,03,38,8.30
2018,05,05,03,39,8.30
2018,05,05,03,40,8.30
2018,05,05,03,41,8.30
2018,05,05,03,42,8.30
2018,05,05,03,43,8.30
2018,05,05,03,44,8.30
2018,05,05,03,45,8.30
2018,05,05,03,46,8.30
2018,05,05,03,47,8.30
2018,05,05,03,48,8.30
2018,05,05,03,49,8.30
2018,05,05,03,50,8.30
2018,05,05,03,51,8.30
2018,05,05,03,52,8.30
2018,05,05,03,53,8.30
2018,05,05,03,54,8.30
2018,05,05,03,55,8.30
2018,05,05,03,56,8.30
2018,05,05,03,57,8.30
2018,05,05,03,58,8.30
2018,05,05,03,59,8.30
2018,05,05,04,00,8.30
2018,05,05,04,01,8.20
2018,05,05,04,02,8.20
2018,05,05,04,03,8.20
2018,05,05,04,04,8.20
2018,05,05,04,05,8.10
2018,05,05,04,06,8.10
2018,05,05,04,07,8.10
2018,05,05,04,08,8.00
2018,05,05,04,09,8.00
2018,05,05,04,10,8.00
2018,05,05,04,11,8.10
2018,05,05,04,12,8.10
2018,05,05,04,13,8.10
2018,05,05,04,14,8.10
2018,05,05,04,15,8.10
2018,05,05,04,16,8.20
2018,05,05,04,17,8.20
2018,05,05,04,18,8.10
2018,05,05,04,19,8.10
2018,05,05,04,20,8.10
2018,05,05,04,21,8.10
2018,05,05,04,22,8.10
2018,05,05,04,23,8.10
2018,05,05,04,24,8.00
2018,05,05,04,25,8.00
2018,05,05,04,26,8.00
2018,05,05,04,27,7.90
2018,05,05,04,28,7.90
2018,05,05,04,29,7.90
2018,05,05,04,30,7.90
2018,05,05,04,31,7.90
2018,05,05,04,32,7.80
2018,05,05,04,33,7.80
2018,05,05,04,34,7.80
2018,05,05,04,35,7.80
2018,05,05,04,36,7.80
2018,05,05,04,37,7.80
2018,05,05,04,38,7.70
2018,05,05,04,39,7.70
2018,05,05,04,40,7.70
2018,05,05,04,41,7.70
2018,05,05,04,42,7.70
2018,05,05,04,43,7.70
2018,05,05,04,44,7.70
2018,05,05,04,45,7.70
2018,05,05,04,46,7.70
2018,05,05,04,47,7.70
2018,05,05,04,48,7.70
2018,05,05,04,49,7.70
2018,05,05,04,50,7.70
2018,05,05,04,51,7.70
2018,05,05,04,52,7.70
2018,05,05,04,53,7.70
2018,05,05,04,54,7.70
2018,05,05,04,55,7.70
2018,05,05,04,56,7.70
2018,05,05,04,57,7.70
2018,05,05,04,58,7.70
2018,05,05,04,59,7.70
2018,05,05,05,00,7.70
2018,05,05,05,01,7.80
2018,05,05,05,02,7.80
2018,05,05,05,03,7.80
2018,05,05,05,04,7.80
2018,05,05,05,05,7.90
2018,05,05,05,06,7.90
2018,05,05,05,07,7.90
2018,05,05,05,08,7.90
2018,05,05,05,09,7.90
2018,05,05,05,10,7.90
2018,05,05,05,11,7.90
2018,05,05,05,12,7.90
2018,05,05,05,13,7.90
2018,05,05,05,14,7.90
2018,05,05,05,15,7.90
2018,05,05,05,16,7.90
2018,05,05,05,17,7.90
2018,05,05,05,18,7.90
2018,05,05,05,19,7.90
2018,05,05,05,20,8.00
2018,05,05,05,21,8.10
2018,05,05,05,22,8.20
2018,05,05,05,23,8.30
2018,05,05,05,24,8.40
2018,05,05,05,25,8.50
2018,05,05,05,26,8.50
2018,05,05,05,27,8.50
2018,05,05,05,28,8.50
2018,05,05,05,29,8.50
2018,05,05,05,30,8.50
2018,05,05,05,31,8.50
2018,05,05,05,32,8.50
2018,05,05,05,33,8.40
2018,05,05,05,34,8.40
2018,05,05,05,35,8.40
2018,05,05,05,36,8.40
2018,05,05,05,37,8.40
2018,05,05,05,38,8.40
2018,05,05,05,39,8.40
2018,05,05,05,40,8.40
2018,05,05,05,41,8.50
2018,05,05,05,42,8.50
2018,05,05,05,43,8.50
2018,05,05,05,44,8.50
2018,05,05,05,45,8.50
2018,05,05,05,46,8.50
2018,05,05,05,47,8.60
2018,05,05,05,48,8.60
2018,05,05,05,49,8.60
2018,05,05,05,50,8.60
2018,05,05,05,51,8.60
2018,05,05,05,52,8.50
2018,05,05,05,53,8.50
2018,05,05,05,54,8.50
2018,05,05,05,55,8.50
2018,05,05,05,56,8.50
2018,05,05,05,57,8.40
2018,05,05,05,58,8.40
2018,05,05,05,59,8.50
2018,05,05,06,00,8.50
2018,05,05,06,01,8.50
2018,05,05,06,02,8.50
2018,05,05,06,03,8.50
2018,05,05,06,04,8.50
2018,05,05,06,05,8.50
2018,05,05,06,06,8.50
2018,05,05,06,07,8.50
2018,05,05,06,08,8.60
2018,05,05,06,09,8.60
2018,05,05,06,10,8.60
2018,05,05,06,11,8.60
2018,05,05,06,12,8.60
2018,05,05,06,13,8.60
2018,05,05,06,14,8.60
2018,05,05,06,15,8.60
2018,05,05,06,16,8.60
2018,05,05,06,17,8.60
2018,05,05,06,18,8.60
2018,05,05,06,19,8.60
2018,05,05,06,20,8.60
2018,05,05,06,21,8.60
2018,05,05,06,22,8.60
2018,05,05,06,23,8.70
2018,05,05,06,24,8.70
2018,05,05,06,25,8.70
2018,05,05,06,26,8.70
2018,05,05,06,27,8.70
2018,05,05,06,28,8.70
2018,05,05,06,29,8.80
2018,05,05,06,30,8.80
2018,05,05,06,31,8.80
2018,05,05,06,32,8.80
2018,05,05,06,33,8.80
2018,05,05,06,34,8.90
2018,05,05,06,35,8.90
2018,05,05,06,36,8.90
2018,05,05,06,37,8.90
2018,05,05,06,38,8.90
2018,05,05,06,39,8.90
2018,05,05,06,40,8.90
2018,05,05,06,41,8.90
2018,05,05,06,42,9.00
2018,05,05,06,43,9.00
2018,05,05,06,44,9.00
2018,05,05,06,45,9.00
2018,05,05,06,46,9.10
2018,05,05,06,47,9.10
2018,05,05,06,48,9.10
2018,05,05,06,49,9.10
2018,05,05,06,50,9.20
2018,05,05,06,51,9.20
2018,05,05,06,52,9.20
2018,05,05,06,53,9.20
2018,05,05,06,54,9.30
2018,05,05,06,55,9.30
2018,05,05,06,56,9.30
2018,05,05,06,57,9.30
2018,05,05,06,58,9.40
2018,05,05,06,59,9.40
2018,05,05,07,00,9.40
2018,05,05,07,01,9.50
2018,05,05,07,02,9.50
2018,05,05,07,03,9.60
2018,05,05,07,04,9.60
2018,05,05,07,05,9.60
2018,05,05,07,06,9.70
2018,05,05,07,07,9.70
2018,05,05,07,08,9.80
2018,05,05,07,09,9.80
2018,05,05,07,10,9.90
2018,05,05,07,11,10.00
2018,05,05,07,12,10.10
2018,05,05,07,13,10.10
2018,05,05,07,14,10.20
2018,05,05,07,15,10.30
2018,05,05,07,16,10.30
2018,05,05,07,17,10.40
2018,05,05,07,18,10.40
2018,05,05,07,19,10.50
2018,05,05,07,20,10.50
2018,05,05,07,21,10.50
2018,05,05,07,22,10.60
2018,05,05,07,23,10.60
2018,05,05,07,24,10.70
2018,05,05,07,25,10.70
2018,05,05,07,26,10.70
2018,05,05,07,27,10.70
2018,05,05,07,28,10.80
2018,05,05,07,29,10.80
2018,05,05,07,30,10.80
2018,05,05,07,31,10.80
2018,05,05,07,32,10.90
2018,05,05,07,33,10.90
2018,05,05,07,34,11.00
2018,05,05,07,35,11.00
2018,05,05,07,36,11.10
2018,05,05,07,37,11.10
2018,05,05,07,38,11.10
2018,05,05,07,39,11.20
2018,05,05,07,40,11.20
2018,05,05,07,41,11.20
2018,05,05,07,42,11.30
2018,05,05,07,43,11.30
2018,05,05,07,44,11.30
2018,05,05,07,45,11.40
2018,05,05,07,46,11.40
2018,05,05,07,47,11.40
2018,05,05,07,48,11.50
2018,05,05,07,49,11.50
2018,05,05,07,50,11.50
2018,05,05,07,51,11.50
2018,05,05,07,52,11.50
2018,05,05,07,53,11.60
2018,05,05,07,54,11.60
2018,05,05,07,55,11.70
2018,05,05,07,56,11.70
2018,05,05,07,57,11.80
2018,05,05,07,58,11.80
2018,05,05,07,59,11.80
2018,05,05,08,00,11.70
2018,05,05,08,01,11.70
2018,05,05,08,02,11.70
2018,05,05,08,03,11.70
2018,05,05,08,04,11.70
2018,05,05,08,05,11.70
2018,05,05,08,06,11.70
2018,05,05,08,07,11.70
2018,05,05,08,08,11.70
2018,05,05,08,09,11.80
2018,05,05,08,10,11.80
2018,05,05,08,11,11.80
2018,05,05,08,12,11.80
2018,05,05,08,13,11.80
2018,05,05,08,14,11.80
2018,05,05,08,15,11.80
2018,05,05,08,16,11.80
2018,05,05,08,17,11.80
2018,05,05,08,18,11.80
2018,05,05,08,19,11.80
2018,05,05,08,20,11.80
2018,05,05,08,21,11.80
2018,05,05,08,22,11.90
2018,05,05,08,23,11.90
2018,05,05,08,24,11.90
2018,05,05,08,25,12.00
2018,05,05,08,26,12.00
2018,05,05,08,27,12.00
2018,05,05,08,28,12.10
2018,05,05,08,29,12.10
2018,05,05,08,30,12.10
2018,05,05,08,31,12.10
2018,05,05,08,32,12.20
2018,05,05,08,33,12.30
2018,05,05,08,34,12.40
2018,05,05,08,35,12.40
2018,05,05,08,36,12.40
2018,05,05,08,37,12.50
2018,05,05,08,38,12.50
2018,05,05,08,39,12.60
2018,05,05,08,40,12.70
2018,05,05,08,41,12.80
2018,05,05,08,42,13.00
2018,05,05,08,43,13.10
2018,05,05,08,44,13.10
2018,05,05,08,45,13.20
2018,05,05,08,46,13.20
2018,05,05,08,47,13.20
2018,05,05,08,48,13.10
2018,05,05,08,49,13.10
2018,05,05,08,50,13.10
2018,05,05,08,51,13.10
2018,05,05,08,52,13.10
2018,05,05,08,53,13.10
2018,05,05,08,54,13.20
2018,05,05,08,55,13.20
2018,05,05,08,56,13.20
2018,05,05,08,57,13.20
2018,05,05,08,58,13.10
2018,05,05,08,59,13.10
2018,05,05,09,00,13.20
2018,05,05,09,01,13.30
2018,05,05,09,02,13.30
2018,05,05,09,03,13.40
2018,05,05,09,04,13.40
2018,05,05,09,05,13.40
2018,05,05,09,06,13.40
2018,05,05,09,07,13.50
2018,05,05,09,08,13.50
2018,05,05,09,09,13.50
2018,05,05,09,10,13.60
2018,05,05,09,11,13.60
2018,05,05,09,12,13.60
2018,05,05,09,13,13.70
2018,05,05,09,14,13.80
2018,05,05,09,15,13.70
2018,05,05,09,16,13.70
2018,05,05,09,17,13.70
2018,05,05,09,18,13.70
2018,05,05,09,19,13.70
2018,05,05,09,20,13.70
2018,05,05,09,21,13.80
2018,05,05,09,22,13.80
2018,05,05,09,23,13.80
2018,05,05,09,24,13.80
2018,05,05,09,25,13.90
2018,05,05,09,26,13.90
2018,05,05,09,27,14.00
2018,05,05,09,28,14.00
2018,05,05,09,29,14.10
2018,05,05,09,30,14.10
2018,05,05,09,31,14.10
2018,05,05,09,32,14.10
2018,05,05,09,33,14.10
2018,05,05,09,34,14.10
2018,05,05,09,35,14.10
2018,05,05,09,36,14.10
2018,05,05,09,37,14.10
2018,05,05,09,38,14.10
2018,05,05,09,39,14.10
2018,05,05,09,40,14.20
2018,05,05,09,41,14.30
2018,05,05,09,42,14.40
2018,05,05,09,43,14.40
2018,05,05,09,44,14.30
2018,05,05,09,45,14.20
2018,05,05,09,46,14.20
2018,05,05,09,47,14.30
2018,05,05,09,48,14.40
2018,05,05,09,49,14.50
2018,05,05,09,50,14.50
2018,05,05,09,51,14.50
2018,05,05,09,52,14.50
2018,05,05,09,53,14.60
2018,05,05,09,54,14.60
2018,05,05,09,55,14.60
2018,05,05,09,56,14.60
2018,05,05,09,57,14.60
2018,05,05,09,58,14.60
2018,05,05,09,59,14.60
2018,05,05,10,00,14.50
2018,05,05,10,01,14.60
2018,05,05,10,02,14.70
2018,05,05,10,03,14.70
2018,05,05,10,04,14.70
2018,05,05,10,05,14.70
2018,05,05,10,06,14.80
2018,05,05,10,07,14.70
2018,05,05,10,08,14.70
2018,05,05,10,09,14.60
2018,05,05,10,10,14.60
2018,05,05,10,11,14.60
2018,05,05,10,12,14.70
2018,05,05,10,13,14.70
2018,05,05,10,14,14.70
2018,05,05,10,15,14.70
2018,05,05,10,16,14.60
2018,05,05,10,17,14.60
2018,05,05,10,18,14.60
2018,05,05,10,19,14.70
2018,05,05,10,20,14.70
2018,05,05,10,21,14.70
2018,05,05,10,22,14.70
2018,05,05,10,23,14.70
2018,05,05,10,24,14.80
2018,05,05,10,25,14.80
2018,05,05,10,26,14.90
2018,05,05,10,27,14.90
2018,05,05,10,28,15.00
2018,05,05,10,29,15.00
2018,05,05,10,30,15.10
2018,05,05,10,31,15.20
2018,05,05,10,32,15.20
2018,05,05,10,33,15.20
2018,05,05,10,34,15.20
2018,05,05,10,35,15.10
2018,05,05,10,36,15.10
2018,05,05,10,37,15.10
2018,05,05,10,38,15.00
2018,05,05,10,39,15.00
2018,05,05,10,40,15.00
2018,05,05,10,41,14.90
2018,05,05,10,42,14.90
2018,05,05,10,43,15.00
2018,05,05,10,44,15.10
2018,05,05,10,45,15.20
2018,05,05,10,46,15.20
2018,05,05,10,47,15.30
2018,05,05,10,48,15.30
2018,05,05,10,49,15.30
2018,05,05,10,50,15.20
2018,05,05,10,51,15.20
2018,05,05,10,52,15.20
2018,05,05,10,53,15.20
2018,05,05,10,54,15.30
2018,05,05,10,55,15.40
2018,05,05,10,56,15.50
2018,05,05,10,57,15.60
2018,05,05,10,58,15.50
2018,05,05,10,59,15.50
2018,05,05,11,00,15.60
2018,05,05,11,01,15.80
2018,05,05,11,02,16.00
2018,05,05,11,03,16.10
2018,05,05,11,04,16.30
2018,05,05,11,05,16.50
2018,05,05,11,06,16.60
2018,05,05,11,07,16.60
2018,05,05,11,08,16.70
2018,05,05,11,09,16.80
2018,05,05,11,10,16.80
2018,05,05,11,11,16.80
2018,05,05,11,12,16.80
2018,05,05,11,13,16.80
2018,05,05,11,14,16.70
2018,05,05,11,15,16.70
2018,05,05,11,16,16.70
2018,05,05,11,17,16.80
2018,05,05,11,18,16.80
2018,05,05,11,19,16.80
2018,05,05,11,20,16.70
2018,05,05,11,21,16.60
2018,05,05,11,22,16.50
2018,05,05,11,23,16.40
2018,05,05,11,24,16.30
2018,05,05,11,25,16.30
2018,05,05,11,26,16.40
2018,05,05,11,27,16.50
2018,05,05,11,28,16.60
2018,05,05,11,29,16.70
2018,05,05,11,30,16.70
2018,05,05,11,31,16.60
2018,05,05,11,32,16.60
2018,05,05,11,33,16.60
2018,05,05,11,34,16.60
2018,05,05,11,35,16.60
2018,05,05,11,36,16.70
2018,05,05,11,37,16.70
2018,05,05,11,38,16.80
2018,05,05,11,39,16.80
2018,05,05,11,40,16.70
2018,05,05,11,41,16.60
2018,05,05,11,42,16.50
2018,05,05,11,43,16.40
2018,05,05,11,44,16.40
2018,05,05,11,45,16.40
2018,05,05,11,46,16.40
2018,05,05,11,47,16.40
2018,05,05,11,48,16.40
2018,05,05,11,49,16.30
2018,05,05,11,50,16.20
2018,05,05,11,51,16.20
2018,05,05,11,52,16.30
2018,05,05,11,53,16.40
2018,05,05,11,54,16.50
2018,05,05,11,55,16.60
2018,05,05,11,56,16.50
2018,05,05,11,57,16.50
2018,05,05,11,58,16.50
2018,05,05,11,59,16.50
2018,05,05,12,00,16.40
2018,05,05,12,01,16.30
2018,05,05,12,02,16.20
2018,05,05,12,03,16.20
2018,05,05,12,04,16.30
2018,05,05,12,05,16.40
2018,05,05,12,06,16.60
2018,05,05,12,07,16.80
2018,05,05,12,08,17.00
2018,05,05,12,09,17.20
2018,05,05,12,10,17.20
2018,05,05,12,11,17.30
2018,05,05,12,12,17.30
2018,05,05,12,13,17.40
2018,05,05,12,14,17.40
2018,05,05,12,15,17.40
2018,05,05,12,16,17.50
2018,05,05,12,17,17.30
2018,05,05,12,18,17.20
2018,05,05,12,19,17.20
2018,05,05,12,20,17.30
2018,05,05,12,21,17.40
2018,05,05,12,22,17.30
2018,05,05,12,23,17.20
2018,05,05,12,24,17.20
2018,05,05,12,25,17.20
2018,05,05,12,26,17.20
2018,05,05,12,27,17.30
2018,05,05,12,28,17.30
2018,05,05,12,29,17.30
2018,05,05,12,30,17.30
2018,05,05,12,31,17.30
2018,05,05,12,32,17.40
2018,05,05,12,33,17.50
2018,05,05,12,34,17.60
2018,05,05,12,35,17.70
2018,05,05,12,36,17.80
2018,05,05,12,37,18.00
2018,05,05,12,38,18.00
2018,05,05,12,39,18.00
2018,05,05,12,40,17.90
2018,05,05,12,41,17.80
2018,05,05,12,42,17.90
2018,05,05,12,43,18.00
2018,05,05,12,44,18.00
2018,05,05,12,45,18.00
2018,05,05,12,46,18.00
2018,05,05,12,47,18.00
2018,05,05,12,48,17.90
2018,05,05,12,49,17.90
2018,05,05,12,50,17.80
2018,05,05,12,51,17.90
2018,05,05,12,52,18.00
2018,05,05,12,53,18.10
2018,05,05,12,54,18.00
2018,05,05,12,55,17.90
2018,05,05,12,56,17.90
2018,05,05,12,57,17.90
2018,05,05,12,58,17.80
2018,05,05,12,59,17.90
2018,05,05,13,00,17.90
2018,05,05,13,01,17.90
2018,05,05,13,02,17.80
2018,05,05,13,03,17.70
2018,05,05,13,04,17.70
2018,05,05,13,05,17.70
2018,05,05,13,06,17.70
2018,05,05,13,07,17.90
2018,05,05,13,08,18.00
2018,05,05,13,09,18.10
2018,05,05,13,10,18.10
2018,05,05,13,11,18.10
2018,05,05,13,12,18.10
2018,05,05,13,13,18.00
2018,05,05,13,14,18.10
2018,05,05,13,15,18.10
2018,05,05,13,16,18.20
2018,05,05,13,17,18.30
2018,05,05,13,18,18.40
2018,05,05,13,19,18.40
2018,05,05,13,20,18.40
2018,05,05,13,21,18.40
2018,05,05,13,22,18.20
2018,05,05,13,23,18.10
2018,05,05,13,24,18.10
2018,05,05,13,25,18.20
2018,05,05,13,26,18.20
2018,05,05,13,27,18.30
2018,05,05,13,28,18.40
2018,05,05,13,29,18.40
2018,05,05,13,30,18.30
2018,05,05,13,31,18.20
2018,05,05,13,32,18.10
2018,05,05,13,33,17.90
2018,05,05,13,34,17.70
2018,05,05,13,35,17.60
2018,05,05,13,36,17.70
2018,05,05,13,37,17.90
2018,05,05,13,38,18.00
2018,05,05,13,39,18.10
2018,05,05,13,40,18.10
2018,05,05,13,41,18.20
2018,05,05,13,42,18.30
2018,05,05,13,43,18.40
2018,05,05,13,44,18.40
2018,05,05,13,45,18.50
2018,05,05,13,46,18.60
2018,05,05,13,47,18.70
2018,05,05,13,48,18.80
2018,05,05,13,49,18.90
2018,05,05,13,50,19.00
2018,05,05,13,51,19.00
2018,05,05,13,52,19.00
2018,05,05,13,53,18.80
2018,05,05,13,54,18.80
2018,05,05,13,55,18.80
2018,05,05,13,56,18.80
2018,05,05,13,57,18.80
2018,05,05,13,58,18.80
2018,05,05,13,59,18.80
2018,05,05,14,00,18.80
2018,05,05,14,01,18.80
2018,05,05,14,02,18.80
2018,05,05,14,03,18.90
2018,05,05,14,04,19.00
2018,05,05,14,05,19.10
2018,05,05,14,06,19.20
2018,05,05,14,07,19.20
2018,05,05,14,08,19.10
2018,05,05,14,09,19.00
2018,05,05,14,10,18.90
2018,05,05,14,11,18.80
2018,05,05,14,12,18.60
2018,05,05,14,13,18.60
2018,05,05,14,14,18.60
2018,05,05,14,15,18.60
2018,05,05,14,16,18.60
2018,05,05,14,17,18.80
2018,05,05,14,18,18.90
2018,05,05,14,19,19.00
2018,05,05,14,20,18.90
2018,05,05,14,21,18.90
2018,05,05,14,22,18.90
2018,05,05,14,23,18.80
2018,05,05,14,24,18.70
2018,05,05,14,25,18.70
2018,05,05,14,26,18.80
2018,05,05,14,27,18.90
2018,05,05,14,28,18.90
2018,05,05,14,29,18.80
2018,05,05,14,30,18.80
2018,05,05,14,31,18.80
2018,05,05,14,32,18.90
2018,05,05,14,33,19.00
2018,05,05,14,34,19.00
2018,05,05,14,35,19.00
2018,05,05,14,36,19.00
2018,05,05,14,37,18.90
2018,05,05,14,38,18.80
2018,05,05,14,39,18.80
2018,05,05,14,40,18.80
2018,05,05,14,41,18.90
2018,05,05,14,42,19.00
2018,05,05,14,43,19.00
2018,05,05,14,44,19.00
2018,05,05,14,45,19.00
2018,05,05,14,46,19.00
2018,05,05,14,47,19.10
2018,05,05,14,48,19.20
2018,05,05,14,49,19.30
2018,05,05,14,50,19.30
2018,05,05,14,51,19.30
2018,05,05,14,52,19.40
2018,05,05,14,53,19.40
2018,05,05,14,54,19.40
2018,05,05,14,55,19.40
2018,05,05,14,56,19.40
2018,05,05,14,57,19.40
2018,05,05,14,58,19.30
2018,05,05,14,59,19.30
2018,05,05,15,00,19.40
2018,05,05,15,01,19.40
2018,05,05,15,02,19.20
2018,05,05,15,03,18.90
2018,05,05,15,04,18.80
2018,05,05,15,05,18.80
2018,05,05,15,06,18.80
2018,05,05,15,07,18.80
2018,05,05,15,08,19.00
2018,05,05,15,09,19.10
2018,05,05,15,10,19.10
2018,05,05,15,11,19.10
2018,05,05,15,12,19.10
2018,05,05,15,13,19.10
2018,05,05,15,14,18.90
2018,05,05,15,15,18.80
2018,05,05,15,16,18.80
2018,05,05,15,17,18.80
2018,05,05,15,18,18.90
2018,05,05,15,19,18.90
2018,05,05,15,20,18.90
2018,05,05,15,21,18.90
2018,05,05,15,22,18.80
2018,05,05,15,23,18.80
2018,05,05,15,24,18.90
2018,05,05,15,25,19.10
2018,05,05,15,26,19.10
2018,05,05,15,27,19.10
2018,05,05,15,28,19.00
2018,05,05,15,29,18.90
2018,05,05,15,30,18.80
2018,05,05,15,31,18.80
2018,05,05,15,32,18.80
2018,05,05,15,33,18.70
2018,05,05,15,34,18.70
2018,05,05,15,35,18.80
2018,05,05,15,36,19.00
2018,05,05,15,37,19.10
2018,05,05,15,38,19.20
2018,05,05,15,39,19.30
2018,05,05,15,40,19.30
2018,05,05,15,41,19.20
2018,05,05,15,42,19.20
2018,05,05,15,43,19.20
2018,05,05,15,44,19.30
2018,05,05,15,45,19.40
2018,05,05,15,46,19.60
2018,05,05,15,47,19.60
2018,05,05,15,48,19.60
2018,05,05,15,49,19.50
2018,05,05,15,50,19.30
2018,05,05,15,51,19.00
2018,05,05,15,52,18.90
2018,05,05,15,53,18.80
2018,05,05,15,54,18.80
2018,05,05,15,55,19.00
2018,05,05,15,56,19.00
2018,05,05,15,57,18.90
2018,05,05,15,58,18.80
2018,05,05,15,59,18.70
2018,05,05,16,00,18.60
2018,05,05,16,01,18.50
2018,05,05,16,02,18.50
2018,05,05,16,03,18.40
2018,05,05,16,04,18.40
2018,05,05,16,05,18.40
2018,05,05,16,06,18.40
2018,05,05,16,07,18.40
2018,05,05,16,08,18.40
2018,05,05,16,09,18.40
2018,05,05,16,10,18.40
2018,05,05,16,11,18.40
2018,05,05,16,12,18.50
2018,05,05,16,13,18.60
2018,05,05,16,14,18.70
2018,05,05,16,15,18.80
2018,05,05,16,16,18.90
2018,05,05,16,17,19.00
2018,05,05,16,18,19.20
2018,05,05,16,19,19.30
2018,05,05,16,20,19.40
2018,05,05,16,21,19.50
2018,05,05,16,22,19.70
2018,05,05,16,23,19.70
2018,05,05,16,24,19.60
2018,05,05,16,25,19.40
2018,05,05,16,26,19.40
2018,05,05,16,27,19.40
2018,05,05,16,28,19.30
2018,05,05,16,29,19.30
2018,05,05,16,30,19.20
2018,05,05,16,31,19.30
2018,05,05,16,32,19.30
2018,05,05,16,33,19.30
2018,05,05,16,34,19.40
2018,05,05,16,35,19.50
2018,05,05,16,36,19.50
2018,05,05,16,37,19.40
2018,05,05,16,38,19.40
2018,05,05,16,39,19.30
2018,05,05,16,40,19.30
2018,05,05,16,41,19.40
2018,05,05,16,42,19.50
2018,05,05,16,43,19.50
2018,05,05,16,44,19.50
2018,05,05,16,45,19.50
2018,05,05,16,46,19.60
2018,05,05,16,47,19.50
2018,05,05,16,48,19.40
2018,05,05,16,49,19.40
2018,05,05,16,50,19.40
2018,05,05,16,51,19.30
2018,05,05,16,52,19.40
2018,05,05,16,53,19.40
2018,05,05,16,54,19.40
2018,05,05,16,55,19.40
2018,05,05,16,56,19.40
2018,05,05,16,57,19.40
2018,05,05,16,58,19.40
2018,05,05,16,59,19.40
2018,05,05,17,00,19.40
2018,05,05,17,01,19.40
2018,05,05,17,02,19.40
2018,05,05,17,03,19.50
2018,05,05,17,04,19.50
2018,05,05,17,05,19.60
2018,05,05,17,06,19.70
2018,05,05,17,07,19.70
2018,05,05,17,08,19.60
2018,05,05,17,09,19.50
2018,05,05,17,10,19.40
2018,05,05,17,11,19.40
2018,05,05,17,12,19.40
2018,05,05,17,13,19.40
2018,05,05,17,14,19.40
2018,05,05,17,15,19.30
2018,05,05,17,16,19.40
2018,05,05,17,17,19.40
2018,05,05,17,18,19.50
2018,05,05,17,19,19.60
2018,05,05,17,20,19.70
2018,05,05,17,21,19.70
2018,05,05,17,22,19.70
2018,05,05,17,23,19.70
2018,05,05,17,24,19.50
2018,05,05,17,25,19.50
2018,05,05,17,26,19.50
2018,05,05,17,27,19.40
2018,05,05,17,28,19.30
2018,05,05,17,29,19.20
2018,05,05,17,30,19.20
2018,05,05,17,31,19.20
2018,05,05,17,32,19.20
2018,05,05,17,33,19.30
2018,05,05,17,34,19.40
2018,05,05,17,35,19.40
2018,05,05,17,36,19.50